Location: Unspecified
(52.4292°N, 19.3359°E)
Time: 01:20:43
(UTC+02:00)

Vanguard 1 Rocket - Pass Details

Date: 20 May 2024
Orbit: 649 x 4221 km, 34.3° (Epoch: 13 June)

Event Time Altitude Azimuth Distance (km) Brightness Sun altitude
Rises 09:01:07 0° 207° (SSW) 8,120 12.1 37.2°
Reaches altitude 10° 09:09:21 10° 195° (SSW) 6,598 11.9 38.4°
Maximum altitude 09:21:34 20° 157° (SSE) 4,664 11.8 40.2°
Drops below altitude 10° 09:30:10 10° 116° (ESE) 4,497 12.1 41.4°
Sets 09:34:11 0° 100° (E) 4,977 12.0 41.9°
